Estación de Campanacura

Ultimos registro cada 15 minutos 34
Estación Fecha / Hora Temperatura Humedad Lluvia Velocidad Dirección Radiación Presion
34 Campanacura 02-09-2026 23:30 6,1 5,5 0 0 107 0,6 1009,7
33 Campanacura 02-09-2026 23:15 7,1 5,4 0 0 107 0,6 1009,6
32 Campanacura 02-09-2026 23:00 7,2 7,2 0 0 107 0,6 1009,6
31 Campanacura 02-09-2026 22:45 7,9 5,4 0 0 105 0,6 1009,5
30 Campanacura 02-09-2026 22:30 7,1 8,4 0 0 107 0,6 1009,7
29 Campanacura 02-09-2026 22:15 7,9 11,3 0 0 107 0,6 1009,4
28 Campanacura 02-09-2026 22:00 8 13,1 0 0 107 0,6 1009,1
27 Campanacura 02-09-2026 21:45 8,6 13,9 0 0 107 0,6 1008,9
26 Campanacura 02-09-2026 21:30 8,9 19,4 0 0 107 0,6 1009,1
25 Campanacura 02-09-2026 21:15 9,3 19,7 0 0 107 0,6 1008,9
24 Campanacura 02-09-2026 21:00 9,5 17,4 0 0 107 0,6 1008,9
23 Campanacura 02-09-2026 20:45 9,3 15,4 0 0 107 0,6 1008,5
22 Campanacura 02-09-2026 20:30 9,2 18,4 0 0 105 0,6 1008,3
21 Campanacura 02-09-2026 20:15 9,9 30,4 0 0 107 0,6 1008,4
20 Campanacura 02-09-2026 20:00 10,9 40,6 0 0 105 0,6 1007,9
19 Campanacura 02-09-2026 19:45 11,1 8,3 0 0 88 0,6 1007,9
18 Campanacura 02-09-2026 18:15 13,1 8,6 0 0 86 13,1 1006,5
17 Campanacura 02-09-2026 18:00 13,5 17,1 0 0 86 29,4 1006,6
16 Campanacura 02-09-2026 17:45 13,8 16,1 0 0 86 60,6 1006,4
15 Campanacura 02-09-2026 17:30 13,9 23,1 0 0 86 75,6 1006,1
14 Campanacura 02-09-2026 17:15 14 15,8 0 0 84 129,4 1005,9
13 Campanacura 02-09-2026 17:00 14,4 16,4 0 0 83 170,6 1005,4
12 Campanacura 02-09-2026 16:45 13,8 8,5 0 0 84 188,1 1005,4
11 Campanacura 02-09-2026 13:30 13,4 5,6 0 0,5 15 45,6 1005,2
10 Campanacura 02-09-2026 13:15 14,1 10,9 0 1 11 160,6 1005
9 Campanacura 02-09-2026 13:00 13,9 5,7 0 1 7 223,1 1004,7
8 Campanacura 02-09-2026 11:15 12,1 6,5 0 0 358 89,4 1005,5
7 Campanacura 02-09-2026 01:30 7,6 7 0 0 177 0,6 1004,6
6 Campanacura 02-09-2026 01:15 8,6 8,4 0 0 177 0,6 1004,5
5 Campanacura 02-09-2026 01:00 8,4 8,1 0 0 177 0,6 1004,5
4 Campanacura 02-09-2026 00:45 8,9 9,9 0 0 177 0,6 1004,5
3 Campanacura 02-09-2026 00:30 8,9 11,7 0 0 177 0,6 1004,6
2 Campanacura 02-09-2026 00:15 9,1 14,7 0 0 177 0,6 1004,6
1 Campanacura 02-09-2026 00:00 9,4 19,9 0 0 177 0,6 1004,9